User: anonymous
Location: Trois-Rivi�res
(46.3500°N, 72.5500°W)
Time: 07:24:30
(UTC-04:00)
Language:

Cosmos 1544 - Orbit

View from above orbital plane
View from above orbital plane
View from above satellite
View from above satellite

Ground track
Ground track

The orbit data is extracted from the following two-line orbital elements,

1 14819U 84027A   14234.78212588  .00003429  00000-0  16881-3 0  9994
2 14819 082.4929 337.5709 0018045 051.5267 063.3331 15.17514926659142
Epoch (UTC): 22 August 2014 18:46:15
Eccentricity: 0.0018045
inclination: 82.4929°
perigee height: 501 km
apogee height: 526 km
right ascension of ascending node: 337.5709°
argument of perigee: 51.5267°
revolutions per day: 15.17514926
mean anomaly at epoch: 63.3331°
orbit number at epoch: 65914

The dashed part of the orbit path shows where the satellite is in the earth's shadow,  

DLR